Location: Azul
(36.7830°S, 59.8500°W)
Time: 18:58:36
(UTC-03:00)

FO-29 - Pass Details

Date: 23 October 2021
Orbit: 799 x 1322 km, 98.5° (Epoch: 05 December)

Event Time Altitude Azimuth Distance (km) Brightness Sun altitude
Rises 21:32:25 0° 160° (SSE) 4,082 13.0 -23.9°
Reaches altitude 10° 21:35:07 10° 154° (SSE) 3,177 12.3 -24.3°
Maximum altitude 21:42:12 46° 82° (E) 1,676 10.3 -25.4°
Enters shadow 21:42:38 46° 73° (ENE) 1,688 10.3 -25.5°
